| time (UTC) | temp F | wind direction | speed MPH | gust MPH | rain 1hr in | rain 24hr in | rain mn in | humidity % | barometer mb |
| 20260905085509 | 67 | 100 | 9.0 | 14.0 | 0.00 | 0.03 | 0.03 | 83 | 1010.8 |
| 20260905083437 | 68 | 108 | 11.0 | 21.0 | 0.00 | 0.03 | 0.03 | 82 | 1010.9 |
| 20260905082438 | 68 | 112 | 10.0 | 17.0 | 0.00 | 0.03 | 0.03 | 85 | 1011.2 |
| 20260905080305 | 66 | 123 | 9.0 | 18.0 | 0.00 | 0.03 | 0.03 | 87 | 1011.3 |
| 20260905075237 | 67 | 77 | 7.0 | 10.0 | 0.00 | 0.03 | 0.03 | 82 | 1011.6 |
| 20260905074256 | 67 | 104 | 8.0 | 14.0 | 0.00 | 0.03 | 0.03 | 86 | 1011.4 |
| 20260905072129 | 67 | 74 | 7.0 | 12.0 | 0.00 | 0.03 | 0.03 | 90 | 1011.7 |
| 20260905071059 | 68 | 84 | 7.0 | 15.0 | 0.00 | 0.03 | 0.03 | 89 | 1012.5 |
| 20260905070043 | 68 | 85 | 10.0 | 16.0 | 0.00 | 0.03 | 0.03 | 90 | 1012.3 |
| 20260905065040 | 68 | 113 | 10.0 | 16.0 | 0.03 | 0.03 | 0.03 | 90 | 1011.7 |
| 20260905064017 | 69 | 80 | 6.0 | 11.0 | 0.07 | 0.03 | 0.03 | 90 | 1012.0 |
| 20260905063028 | 69 | 117 | 5.0 | 13.0 | 0.10 | 0.02 | 0.02 | 89 | 1012.7 |
| 20260905060940 | 70 | 113 | 7.0 | 12.0 | 0.00 | 0.00 | 0.00 | 86 | 1012.6 |
| 20260905054851 | 70 | 166 | 6.0 | 16.0 | 0.00 | 0.00 | 0.00 | 85 | 1013.0 |
| 20260905053850 | 70 | 96 | 10.0 | 16.0 | 0.00 | 0.00 | 0.00 | 84 | 1012.1 |
| 20260905052822 | 70 | 96 | 9.0 | 16.0 | 0.00 | 0.00 | 0.00 | 84 | 1011.8 |
| 20260905051751 | 70 | 95 | 11.0 | 22.0 | 0.00 | 0.00 | 0.00 | 84 | 1011.9 |
| 20260905045610 | 70 | 93 | 11.0 | 17.0 | 0.00 | 0.00 | 0.00 | 84 | 1011.7 |
| 20260905044558 | 70 | 91 | 12.0 | 19.0 | 0.00 | 0.00 | 0.00 | 84 | 1011.5 |
| 20260905043534 | 70 | 93 | 13.0 | 21.0 | 0.00 | 0.00 | 0.00 | 83 | 1011.5 |
| 20260905042512 | 70 | 97 | 13.0 | 21.0 | 0.00 | 0.00 | 0.00 | 82 | 1011.8 |
| 20260905041525 | 71 | 98 | 12.0 | 19.0 | 0.00 | 0.00 | 0.00 | 81 | 1011.8 |
| 20260905040523 | 71 | 94 | 13.0 | 21.0 | 0.00 | 0.00 | 0.00 | 80 | 1011.7 |
| 20260905034333 | 71 | 84 | 12.0 | 21.0 | 0.00 | 0.00 | 0.00 | 79 | 1012.0 |
| 20260905033341 | 71 | 105 | 12.0 | 17.0 | 0.00 | 0.00 | 0.00 | 79 | 1012.2 |
| 20260905032352 | 71 | 96 | 11.0 | 20.0 | 0.00 | 0.00 | 0.00 | 79 | 1012.2 |
| 20260905031317 | 71 | 103 | 11.0 | 20.0 | 0.00 | 0.00 | 0.00 | 79 | 1012.1 |
| 20260905030336 | 71 | 88 | 12.0 | 18.0 | 0.00 | 0.00 | 0.00 | 79 | 1012.2 |
| 20260905025323 | 72 | 90 | 12.0 | 17.0 | 0.00 | 0.07 | 0.00 | 78 | 1012.2 |
| 20260905024329 | 72 | 86 | 11.0 | 19.0 | 0.00 | 0.17 | 0.00 | 78 | 1012.1 |
| 20260905022233 | 72 | 73 | 11.0 | 18.0 | 0.00 | 0.45 | 0.00 | 76 | 1012.0 |
| 20260905021244 | 72 | 80 | 11.0 | 18.0 | 0.00 | 0.54 | 0.00 | 75 | 1011.9 |
| 20260905015148 | 73 | 97 | 11.0 | 16.0 | 0.00 | 0.54 | 0.00 | 74 | 1011.8 |
| 20260905014148 | 74 | 102 | 10.0 | 17.0 | 0.00 | 0.54 | 0.00 | 73 | 1011.7 |
| 20260905013129 | 74 | 82 | 10.0 | 17.0 | 0.00 | 0.54 | 0.00 | 72 | 1011.7 |
| 20260905012140 | 75 | 93 | 10.0 | 16.0 | 0.00 | 0.54 | 0.00 | 71 | 1011.6 |
| 20260905011139 | 76 | 105 | 11.0 | 17.0 | 0.00 | 0.54 | 0.00 | 70 | 1011.6 |
| 20260905010123 | 76 | 98 | 11.0 | 17.0 | 0.00 | 0.54 | 0.00 | 69 | 1011.6 |
| 20260905005142 | 77 | 88 | 12.0 | 21.0 | 0.00 | 0.54 | 0.00 | 67 | 1011.6 |
| 20260905004108 | 77 | 89 | 14.0 | 21.0 | 0.00 | 0.54 | 0.00 | 66 | 1011.5 |
| 20260905003112 | 78 | 96 | 13.0 | 23.0 | 0.00 | 0.54 | 0.00 | 64 | 1011.5 |
| 20260905002111 | 78 | 92 | 16.0 | 25.0 | 0.00 | 0.54 | 0.00 | 64 | 1011.5 |
| 20260904235910 | 79 | 83 | 16.0 | 29.0 | 0.00 | 0.54 | 0.00 | 62 | 1011.7 |
| 20260904234849 | 79 | 81 | 17.0 | 26.0 | 0.00 | 0.54 | 0.00 | 61 | 1011.7 |
| 20260904233908 | 79 | 90 | 17.0 | 26.0 | 0.00 | 0.54 | 0.00 | 61 | 1011.7 |
| 20260904232926 | 80 | 118 | 16.0 | 24.0 | 0.00 | 0.54 | 0.00 | 61 | 1011.8 |
| 20260904231902 | 80 | 117 | 15.0 | 23.0 | 0.00 | 0.54 | 0.00 | 60 | 1011.7 |
| 20260904230842 | 80 | 98 | 13.0 | 23.0 | 0.00 | 0.54 | 0.00 | 60 | 1011.8 |
| 20260904224735 | 81 | 92 | 14.0 | 23.0 | 0.00 | 0.54 | 0.00 | 61 | 1011.7 |
| 20260904223709 | 81 | 96 | 14.0 | 23.0 | 0.00 | 0.54 | 0.00 | 58 | 1011.8 |
| 20260904222648 | 80 | 107 | 17.0 | 26.0 | 0.00 | 0.54 | 0.00 | 59 | 1011.7 |
| 20260904221630 | 81 | 71 | 16.0 | 27.0 | 0.00 | 0.54 | 0.00 | 57 | 1011.5 |
| 20260904215530 | 80 | 61 | 18.0 | 26.0 | 0.00 | 0.54 | 0.00 | 58 | 1011.5 |
| 20260904213445 | 80 | 100 | 17.0 | 29.0 | 0.00 | 0.54 | 0.00 | 58 | 1011.5 |
| 20260904212419 | 80 | 104 | 16.0 | 28.0 | 0.00 | 0.54 | 0.00 | 59 | 1011.6 |
| 20260904211428 | 80 | 75 | 16.0 | 28.0 | 0.00 | 0.54 | 0.00 | 60 | 1011.4 |
| 20260904205252 | 80 | 98 | 15.0 | 22.0 | 0.00 | 0.54 | 0.00 | 60 | 1011.8 |
| 20260904204250 | 79 | 69 | 14.0 | 24.0 | 0.00 | 0.54 | 0.00 | 63 | 1011.9 |
| 20260904203247 | 79 | 65 | 16.0 | 24.0 | 0.00 | 0.54 | 0.00 | 63 | 1012.2 |
| 20260904201056 | 78 | 120 | 13.0 | 25.0 | 0.00 | 0.54 | 0.00 | 65 | 1012.6 |
| 20260904194913 | 77 | 76 | 13.0 | 23.0 | 0.00 | 0.54 | 0.00 | 70 | 1012.8 |
| 20260904191618 | 76 | 139 | 14.0 | 24.0 | 0.00 | 0.54 | 0.00 | 73 | 1013.1 |
| 20260904190550 | 76 | 103 | 13.0 | 22.0 | 0.00 | 0.54 | 0.00 | 74 | 1013.2 |
| 20260904185528 | 75 | 101 | 13.0 | 21.0 | 0.00 | 0.54 | 0.00 | 75 | 1013.3 |
| 20260904184517 | 74 | 105 | 14.0 | 21.0 | 0.00 | 0.54 | 0.00 | 77 | 1013.3 |
| 20260904183505 | 74 | 103 | 13.0 | 23.0 | 0.00 | 0.54 | 0.00 | 77 | 1013.3 |
| 20260904182506 | 73 | 88 | 14.0 | 23.0 | 0.00 | 0.54 | 0.00 | 80 | 1013.4 |
| 20260904181449 | 72 | 107 | 14.0 | 22.0 | 0.00 | 0.54 | 0.00 | 81 | 1013.4 |
| 20260904180445 | 72 | 109 | 14.0 | 22.0 | 0.00 | 0.54 | 0.00 | 83 | 1013.4 |
| 20260904175510 | 71 | 107 | 14.0 | 22.0 | 0.00 | 0.54 | 0.00 | 85 | 1013.5 |
| 20260904174517 | 70 | 109 | 14.0 | 20.0 | 0.00 | 0.54 | 0.00 | 87 | 1013.7 |
| 20260904172407 | 70 | 116 | 11.0 | 18.0 | 0.00 | 0.54 | 0.00 | 87 | 1013.9 |
| 20260904165213 | 68 | 115 | 11.0 | 16.0 | 0.00 | 0.54 | 0.00 | 93 | 1014.1 |
| 20260904164231 | 67 | 106 | 12.0 | 17.0 | 0.00 | 0.54 | 0.00 | 96 | 1014.0 |
| 20260904163220 | 67 | 92 | 11.0 | 17.0 | 0.00 | 0.54 | 0.00 | 97 | 1014.0 |
| 20260904162156 | 66 | 132 | 10.0 | 16.0 | 0.00 | 0.54 | 0.00 | 97 | 1014.1 |
| 20260904161212 | 65 | 105 | 9.0 | 15.0 | 0.00 | 0.54 | 0.00 | 98 | 1014.2 |
| 20260904160220 | 65 | 110 | 9.0 | 14.0 | 0.00 | 0.54 | 0.00 | 98 | 1014.3 |
| 20260904155228 | 64 | 117 | 8.0 | 14.0 | 0.00 | 0.54 | 0.00 | 98 | 1014.2 |
| 20260904154242 | 64 | 112 | 8.0 | 14.0 | 0.00 | 0.54 | 0.00 | 98 | 1014.3 |
| 20260904153301 | 63 | 110 | 8.0 | 14.0 | 0.00 | 0.54 | 0.00 | 98 | 1014.3 |
| 20260904152302 | 63 | 92 | 7.0 | 10.0 | 0.00 | 0.54 | 0.00 | 98 | 1014.3 |
| 20260904150133 | 61 | 93 | 5.0 | 9.0 | 0.00 | 0.54 | 0.00 | 97 | 1014.4 |
| 20260904145110 | 61 | 99 | 6.0 | 12.0 | 0.00 | 0.54 | 0.00 | 97 | 1014.1 |
| 20260904144123 | 60 | 111 | 7.0 | 12.0 | 0.00 | 0.54 | 0.00 | 98 | 1014.2 |
| 20260904143100 | 60 | 78 | 5.0 | 9.0 | 0.00 | 0.54 | 0.00 | 97 | 1014.1 |
| 20260904142103 | 60 | 119 | 5.0 | 10.0 | 0.00 | 0.54 | 0.00 | 97 | 1014.2 |
| 20260904141044 | 59 | 101 | 6.0 | 11.0 | 0.00 | 0.54 | 0.00 | 97 | 1014.3 |
| 20260904140105 | 59 | 123 | 6.0 | 11.0 | 0.00 | 0.54 | 0.00 | 97 | 1014.3 |
| 20260904135111 | 59 | 103 | 7.0 | 9.0 | 0.00 | 0.54 | 0.00 | 97 | 1014.2 |
| 20260904134046 | 58 | 115 | 7.0 | 10.0 | 0.00 | 0.54 | 0.00 | 97 | 1014.0 |
| 20260904133040 | 58 | 90 | 7.0 | 13.0 | 0.00 | 0.54 | 0.00 | 97 | 1014.0 |
| 20260904132030 | 58 | 90 | 7.0 | 13.0 | 0.00 | 0.54 | 0.00 | 97 | 1014.0 |
| 20260904131046 | 58 | 90 | 8.0 | 12.0 | 0.00 | 0.54 | 0.00 | 97 | 1014.0 |
| 20260904124834 | 58 | 92 | 7.0 | 10.0 | 0.00 | 0.54 | 0.00 | 97 | 1013.9 |
| 20260904123824 | 58 | 94 | 7.0 | 13.0 | 0.00 | 0.54 | 0.00 | 97 | 1013.8 |
| 20260904122830 | 58 | 102 | 7.0 | 13.0 | 0.00 | 0.54 | 0.00 | 97 | 1013.9 |
| 20260904121847 | 58 | 105 | 5.0 | 8.0 | 0.00 | 0.54 | 0.00 | 97 | 1013.6 |
| 20260904120840 | 58 | 88 | 5.0 | 9.0 | 0.00 | 0.54 | 0.00 | 97 | 1013.4 |
| 20260904115856 | 59 | 93 | 6.0 | 9.0 | 0.00 | 0.55 | 0.00 | 97 | 1013.3 |
| 20260904114901 | 59 | 97 | 6.0 | 8.0 | 0.00 | 0.55 | 0.00 | 97 | 1013.2 |
| 20260904113847 | 60 | 80 | 5.0 | 8.0 | 0.00 | 0.56 | 0.00 | 97 | 1013.2 |
| 20260904112848 | 60 | 97 | 5.0 | 8.0 | 0.00 | 0.57 | 0.00 | 97 | 1013.2 |
| 20260904111854 | 60 | 84 | 5.0 | 8.0 | 0.00 | 0.58 | 0.00 | 97 | 1013.1 |
| 20260904110833 | 60 | 85 | 4.0 | 7.0 | 0.00 | 0.59 | 0.00 | 97 | 1013.2 |
| 20260904105813 | 61 | 97 | 4.0 | 7.0 | 0.00 | 0.59 | 0.00 | 97 | 1013.2 |
| 20260904104828 | 61 | 103 | 4.0 | 6.0 | 0.00 | 0.59 | 0.00 | 97 | 1013.2 |
| 20260904103838 | 61 | 108 | 3.0 | 6.0 | 0.00 | 0.61 | 0.00 | 97 | 1013.2 |
| 20260904102854 | 61 | 100 | 3.0 | 7.0 | 0.00 | 0.64 | 0.00 | 97 | 1013.1 |
| 20260904101906 | 61 | 104 | 3.0 | 8.0 | 0.00 | 0.66 | 0.00 | 97 | 1013.1 |
| 20260904100857 | 61 | 118 | 4.0 | 8.0 | 0.00 | 0.68 | 0.00 | 97 | 1013.2 |
| 20260904095857 | 61 | 146 | 3.0 | 7.0 | 0.00 | 0.70 | 0.00 | 97 | 1013.2 |
| 20260904094841 | 61 | 113 | 2.0 | 4.0 | 0.00 | 0.74 | 0.00 | 97 | 1013.3 |
| 20260904093818 | 61 | 106 | 1.0 | 4.0 | 0.00 | 0.77 | 0.00 | 97 | 1013.2 |
| 20260904092812 | 61 | 109 | 3.0 | 8.0 | 0.00 | 0.82 | 0.00 | 97 | 1013.0 |
| 20260904091824 | 61 | 112 | 4.0 | 8.0 | 0.00 | 0.95 | 0.00 | 97 | 1012.9 |
| 20260904090821 | 60 | 126 | 3.0 | 7.0 | 0.00 | 1.11 | 0.00 | 97 | 1013.0 |
| 20260904085817 | 60 | 118 | 3.0 | 6.0 | 0.00 | 1.24 | 0.00 | 97 | 1012.9 |